Location: El Álamo
(40.2307°N, 3.9945°W)
Time: 04:07:59
(UTC+00:00)

Cosmos 2278 - Pass Details

Date: 19 May 2025
Orbit: 839 x 850 km, 71.1° (Epoch: 23 June)

Event Time Altitude Azimuth Distance (km) Brightness Sun altitude
Rises 23:08:30 0° 342° (NNW) 3,401 8.1 -28.0°
Reaches altitude 10° 23:11:04 10° 349° (N) 2,462 7.1 -28.1°
Maximum altitude 23:16:27 44° 61° (ENE) 1,149 4.4 -28.4°
Enters shadow 23:16:47 44° 71° (ENE) 1,156 4.3 -28.4°
